VK4BLP-5 Weather Reports


time (UTC)temp
C
wind
direction
speed
KPH
gust
KPH
rain 1hr
cm
rain 24hr
cm
rain mn
cm
humidity
%
barometer
mb
20260510081505 19 201 0.0 0.0 0.00 0.00 0.00 79 1029.2
20260510081005 19 201 0.0 3.2 0.00 0.00 0.00 79 1029.0
20260510080005 19 201 0.0 1.6 0.00 0.00 0.00 79 1029.1
20260510075504 20 201 1.6 1.6 0.00 0.00 0.00 79 1029.0
20260510073005 20 200 1.6 4.8 0.00 0.00 0.00 77 1028.9
20260510072505 20 197 1.6 4.8 0.00 0.00 0.00 77 1028.7
20260510072005 20 188 1.6 3.2 0.00 0.00 0.00 77 1028.8
20260510071004 21 199 1.6 1.6 0.00 0.00 0.00 76 1028.8
20260510070505 21 197 1.6 1.6 0.00 0.00 0.00 76 1028.8
20260510064505 21 207 1.6 3.2 0.00 0.00 0.00 74 1028.4
20260510063005 21 194 1.6 3.2 0.00 0.00 0.00 74 1028.4
20260510062503 21 194 0.0 3.2 0.00 0.00 0.00 74 1028.3
20260510062005 21 191 1.6 3.2 0.00 0.00 0.00 73 1028.2
20260510061505 21 189 1.6 4.8 0.00 0.00 0.00 73 1028.2
20260510061005 21 196 1.6 4.8 0.00 0.00 0.00 73 1028.0
20260510060505 21 204 1.6 4.8 0.00 0.00 0.00 73 1027.8
20260510055505 22 186 3.2 9.7 0.00 0.00 0.00 72 1027.9
20260510053505 22 159 4.8 8.0 0.00 0.00 0.00 70 1027.9
20260510051004 23 169 4.8 11.3 0.00 0.00 0.00 67 1027.8
20260510045004 23 173 1.6 4.8 0.00 0.00 0.00 66 1027.8
20260510044504 23 185 1.6 4.8 0.00 0.00 0.00 66 1027.8
20260510043005 24 230 1.6 4.8 0.00 0.00 0.00 66 1027.8
20260510042505 24 195 1.6 9.7 0.00 0.00 0.00 66 1027.8
20260510041005 24 227 1.6 8.0 0.00 0.00 0.00 66 1027.8
20260510034504 25 192 1.6 4.8 0.00 0.00 0.00 62 1027.4
20260510034005 25 227 1.6 8.0 0.00 0.00 0.00 62 1027.4
20260510033505 25 247 3.2 8.0 0.00 0.00 0.00 60 1027.4
20260510031504 26 104 3.2 14.5 0.00 0.00 0.00 59 1027.3
20260510030504 26 119 3.2 9.7 0.00 0.00 0.00 59 1027.4
20260510030005 26 145 3.2 9.7 0.00 0.00 0.00 57 1027.4
20260510025505 26 150 3.2 8.0 0.00 0.00 0.00 58 1027.4
20260510024505 26 177 3.2 14.5 0.00 0.00 0.00 58 1027.7
20260510023505 26 174 4.8 14.5 0.00 0.00 0.00 59 1027.7
20260510023005 26 142 3.2 14.5 0.00 0.00 0.00 59 1027.7
20260510022505 26 179 4.8 19.3 0.00 0.00 0.00 59 1027.7
20260510020505 26 152 3.2 9.7 0.00 0.00 0.00 61 1027.9
20260510014504 25 194 4.8 11.3 0.00 0.00 0.00 65 1028.3
20260510014004 25 148 3.2 11.3 0.00 0.00 0.00 66 1028.3
20260510013005 24 128 3.2 11.3 0.00 0.00 0.00 65 1028.5
20260510012004 24 154 4.8 11.3 0.00 0.00 0.00 67 1028.9
20260510011504 23 221 3.2 8.0 0.00 0.00 0.00 67 1028.8
20260510005002 23 172 0.0 4.8 0.00 0.00 0.00 68 1028.9
20260510004003 23 198 1.6 3.2 0.00 0.00 0.00 67 1028.9
20260510003004 24 26 1.6 4.8 0.00 0.00 0.00 66 1029.1
20260510002502 24 354 1.6 4.8 0.00 0.00 0.00 64 1029.3
20260510002004 24 200 1.6 9.7 0.00 0.00 0.00 65 1029.3
20260510001503 24 321 1.6 9.7 0.00 0.00 0.00 66 1029.2
20260509235503 23 199 0.0 3.2 0.00 0.00 0.00 67 1029.2
20260509235004 23 201 1.6 3.2 0.00 0.00 0.00 68 1029.3
20260509234504 23 41 1.6 4.8 0.00 0.00 0.00 69 1029.3
20260509232004 22 239 1.6 4.8 0.00 0.00 0.00 70 1029.0
20260509231503 22 251 1.6 3.2 0.00 0.00 0.00 71 1028.9
20260509231003 21 243 0.0 3.2 0.00 0.00 0.00 71 1028.9
20260509230503 21 254 1.6 3.2 0.00 0.00 0.00 73 1028.9
20260509230004 21 59 0.0 4.8 0.00 0.00 0.00 73 1028.9
20260509225503 21 313 0.0 4.8 0.00 0.00 0.00 73 1028.9
20260509225005 20 237 1.6 3.2 0.00 0.00 0.00 76 1028.8
20260509222504 18 6 0.0 3.2 0.00 0.00 0.00 80 1028.5
20260509222004 17 317 0.0 1.6 0.00 0.00 0.00 82 1028.5
20260509221503 17 148 0.0 1.6 0.00 0.00 0.00 82 1028.7
20260509221004 16 59 0.0 1.6 0.00 0.00 0.00 83 1028.8
20260509220503 16 64 0.0 3.2 0.00 0.00 0.00 83 1028.9
20260509215004 15 10 0.0 3.2 0.00 0.00 0.00 85 1028.9
20260509212504 13 131 0.0 3.2 0.00 0.00 0.00 90 1028.4
20260509212004 13 131 0.0 3.2 0.00 0.00 0.00 90 1028.3
20260509211003 11 131 0.0 3.2 0.00 0.00 0.00 94 1028.0
20260509210003 11 169 0.0 0.0 0.00 0.00 0.00 97 1028.0
20260509205503 10 184 0.0 0.0 0.00 0.00 0.00 97 1027.9
20260509204004 10 184 0.0 0.0 0.00 0.00 0.00 95 1027.9
20260509202503 10 184 0.0 0.0 0.00 0.00 0.00 93 1027.6
20260509202004 10 184 0.0 0.0 0.00 0.00 0.00 93 1027.6
20260509195504 11 183 0.0 0.0 0.00 0.00 0.00 93 1027.5
20260509193504 11 183 0.0 0.0 0.00 0.00 0.00 91 1027.4
20260509191504 11 183 0.0 0.0 0.00 0.00 0.00 91 1027.1
20260509191003 12 183 0.0 0.0 0.00 0.00 0.00 91 1027.1
20260509190504 12 203 0.0 0.0 0.00 0.00 0.00 91 1027.1
20260509190004 12 209 0.0 0.0 0.00 0.00 0.00 92 1026.9
20260509185503 11 214 0.0 0.0 0.00 0.00 0.00 92 1026.9
20260509185004 11 224 0.0 0.0 0.00 0.00 0.00 92 1026.9
20260509184503 11 224 0.0 0.0 0.00 0.00 0.00 92 1026.9
20260509183004 11 224 0.0 0.0 0.00 0.00 0.00 94 1026.9
20260509181504 11 224 0.0 0.0 0.00 0.00 0.00 93 1026.8
20260509181004 11 224 0.0 0.0 0.00 0.00 0.00 94 1026.8
20260509180505 11 224 0.0 0.0 0.00 0.00 0.00 92 1026.8
20260509180004 11 217 0.0 0.0 0.00 0.00 0.00 92 1026.8
20260509175003 11 217 0.0 0.0 0.00 0.00 0.00 92 1026.8
20260509174504 11 217 0.0 0.0 0.00 0.00 0.00 92 1026.7
20260509174003 11 217 0.0 0.0 0.00 0.00 0.00 91 1026.8
20260509173504 11 217 0.0 0.0 0.00 0.00 0.00 91 1026.7
20260509171505 11 217 0.0 0.0 0.00 0.00 0.00 90 1026.3
20260509171004 11 217 0.0 0.0 0.00 0.00 0.00 90 1026.4
20260509170004 11 255 0.0 0.0 0.00 0.00 0.00 89 1026.4
20260509165004 11 255 0.0 0.0 0.00 0.00 0.00 88 1026.3
20260509164503 12 255 0.0 0.0 0.00 0.00 0.00 88 1026.3
20260509163504 12 255 0.0 0.0 0.00 0.00 0.00 88 1026.4
20260509163004 12 253 0.0 0.0 0.00 0.00 0.00 87 1026.4
20260509161504 12 226 0.0 0.0 0.00 0.00 0.00 87 1026.5
20260509160504 12 226 0.0 0.0 0.00 0.00 0.00 88 1026.6
20260509154003 12 229 0.0 0.0 0.00 0.00 0.00 87 1026.7
20260509153504 12 229 0.0 0.0 0.00 0.00 0.00 87 1026.7
20260509152004 12 161 0.0 0.0 0.00 0.00 0.00 86 1026.8
20260509151503 12 161 0.0 0.0 0.00 0.00 0.00 85 1026.8
20260509150504 12 161 0.0 0.0 0.00 0.00 0.00 85 1026.8
20260509150004 13 161 0.0 0.0 0.00 0.00 0.00 84 1026.8
20260509145504 13 161 0.0 0.0 0.00 0.00 0.00 84 1026.8
20260509143004 12 193 0.0 0.0 0.00 0.00 0.00 85 1026.9
20260509142003 12 193 0.0 0.0 0.00 0.00 0.00 86 1026.9
20260509141004 12 193 0.0 0.0 0.00 0.00 0.00 87 1026.9
20260509140503 12 193 0.0 0.0 0.00 0.00 0.00 87 1026.9
20260509135504 12 199 0.0 0.0 0.00 0.00 0.00 88 1027.0
20260509135005 12 199 0.0 0.0 0.00 0.00 0.00 87 1027.0
20260509132504 13 162 3.2 9.7 0.00 0.00 0.00 84 1027.1
20260509131504 13 249 0.0 0.0 0.00 0.00 0.00 83 1026.8
20260509130504 13 249 0.0 0.0 0.00 0.00 0.00 82 1026.9
20260509130004 14 249 0.0 0.0 0.00 0.00 0.00 81 1026.8
20260509125503 14 249 0.0 0.0 0.00 0.00 0.00 80 1026.8
20260509124004 14 249 0.0 0.0 0.00 0.00 0.00 80 1027.1
20260509123004 14 249 0.0 0.0 0.00 0.00 0.00 80 1027.1
20260509121004 15 249 0.0 0.0 0.00 0.00 0.00 78 1027.1
20260509120004 15 249 0.0 0.0 0.00 0.00 0.00 79 1027.0
20260509114004 15 249 0.0 0.0 0.00 0.00 0.00 77 1027.2
20260509113004 15 249 0.0 0.0 0.00 0.00 0.00 76 1027.2
20260509112505 16 249 0.0 0.0 0.00 0.00 0.00 76 1027.2
20260509112004 16 249 0.0 0.0 0.00 0.00 0.00 75 1027.2
20260509110505 16 249 0.0 0.0 0.00 0.00 0.00 75 1027.1
20260509110004 16 249 0.0 0.0 0.00 0.00 0.00 75 1027.2
20260509103005 16 249 0.0 0.0 0.00 0.00 0.00 73 1027.0
20260509102504 16 249 0.0 0.0 0.00 0.00 0.00 73 1027.0
20260509101005 17 249 0.0 0.0 0.00 0.00 0.00 73 1027.0
20260509094004 17 249 0.0 0.0 0.00 0.00 0.00 72 1026.8
20260509093005 17 245 0.0 0.0 0.00 0.00 0.00 72 1026.5
20260509092504 17 243 0.0 0.0 0.00 0.00 0.00 72 1026.5
20260509091505 17 243 0.0 0.0 0.00 0.00 0.00 71 1026.5
20260509091005 17 243 0.0 0.0 0.00 0.00 0.00 71 1026.4
20260509090503 17 174 0.0 0.0 0.00 0.00 0.00 71 1026.4
20260509090005 18 173 0.0 0.0 0.00 0.00 0.00 71 1026.4
20260509084504 18 153 0.0 0.0 0.00 0.00 0.00 69 1026.0
20260509083504 18 163 0.0 0.0 0.00 0.00 0.00 67 1025.9